Погода в Барабинске

Погода в Барабинске : погода сейчас, прогноз погоды и архив. Всё, что Вы хотите узнать о погоде в Барабинске!

Хотите узнать прогноз погоды в Барабинске? Тогда Вам сюда: Погода в Барабинске

Поиск расширенной информации на нашем сайте:

Другие новости

Новости СМИ2

Главная страница сайта

Новости сайта

03.07.2017

Напоминаем, что на нашем специализированном сайте Метеоцентр.Азия вы можете получить высокодетализированные автоматические прогнозы погоды по пунктам России, СНГ и мира в авиационном формате (включающие направление и скорость ветра, видимость, явления погоды, количество и форму облачности, нижнюю и верхнюю границу облачности).

Рекомендуем: Для клиентов Вешняков Компьютерная скорая помощь в тушино по филям.

Погода в Барабинске - сегодня

Время (UTC), дата Ветер
(°,м/с) 
Видим.   Явления Облачность Т
(°С)
Тd
(°С)
f(%) Тe
(°С)
Pmin
(гПа)
dP
(гПа)
Po
(мм)
O2
(г/м3)
Тmin Tmax R s Состояние
почвы
18 19.11.17 230 (ЮЗ) 20000 м  в посл. час ливневой снег  10/10 300 м кучево-дожд. 
[Cb calv]
-3.4 -4.9 89 -6  1027.6  0.2  759  310           
21 19.11.17 240 (ЮЗ) 20000 м    10/10 300 м кучево-дожд. 
[Cb calv]
-3 -4.7 88 -5  1028.8  1.2  760  310           
00 20.11.17 240 (ЮЗ) 20000 м    10/10 300 м кучево-дожд. 
[Cb calv]
-2.2 -3.9 88 -5  1029.8  1.1  761  310  -4.6    11  равномерный
мокрый или
старый снег
100% 
03 20.11.17 230 (ЮЗ) 10 км  слаб. ливневой снег  10/10 300 м кучево-дожд. 
[Cb calv]
-2 -3.7 88 -4  1030.5  0.7  761  309           
06 20.11.17 240 (ЮЗ) 20000 м  в посл. час ливневой снег  10/8 600 м кучево-дожд., средняя 
[Cb calv|Ac trans]
-1 -4.2 79 -3  1031.7  1.2  762  309           
09 20.11.17 200 (Ю) 20000 м  {ливн. осадки}  9/9 600 м кучево-дожд. 
[Cb calv]
-1.3 -4.2 81 -3  1031.9  0.2  762  309           
12 20.11.17 210 (ЮЗ) 20000 м  {ливн. осадки}  8/3 600 м средняя 
[Sc|Ac trans]
-3.4 -4.8 90 -6  1032.5  0.5  763  312    -0.7  0.5     
15 20.11.17 200 (Ю) 20000 м    10/10 600 м 
[Sc diur, vesp]
-2.6 -4.6 86 -5  1032.1  -0.4  762  311           
18 20.11.17 210 (ЮЗ) 20000 м  слаб. ливневой снег  10/10 300 м кучево-дожд. 
[Cb calv]
-1.9 -3.3 90 -5  1031.2  -0.8  762  310           
21 20.11.17 220 (ЮЗ) 20000 м  {ливн. осадки}  10/10 300 м кучево-дожд. 
[Cb calv]
-1.3 -3.5 85 -4  1031  -0.2  762  309           
00 21.11.17 220 (ЮЗ) 20000 м  {ливн. осадки}  10/10 600 м кучево-дожд. 
[Cb calv]
-1.2 -4.3 79 -4  1031.2  0.2  762  309  -3.5    0.6  12  равномерный
мокрый или
старый снег
100% 
03 21.11.17 220 (ЮЗ) 20000 м    10/10 870 м 
[Sc]
-2 -4.7 82 -4  1032.1  0.8  762  310           
06 21.11.17 220 (ЮЗ) 20000 м    10/10 960 м 
[Sc]
-1.8 -4.6 81 -4  1032.3  0.3  763  310           
09 21.11.17 210 (ЮЗ) 20000 м    10/10 360 м кучево-дожд. 
[Cb calv]
-1.8 -4.2 84 -5  1032.2  -0.1  763  310           
12 21.11.17 220 (ЮЗ) 5-10{10}  20000 м    10/10 400 м кучево-дожд. 
[Cb calv]
-1.9 -4.4 83 -5  1031.8  -0.5  762  310    -1.2       
15 21.11.17 210 (ЮЗ) 5{10}  20000 м    10/10 630 м 
[Sc]
-1.7 -4.4 82 -5  1030.9  -0.8  762  309           
18 21.11.17 220 (ЮЗ) 20000 м    8/6 600 м средняя 
[Sc|Ac trans]
-2.3 -5.5 79 -5  1030.8  -0.1  762  310           
21 21.11.17 210 (ЮЗ) 20000 м    10/10 1000 м 
[Sc]
-1.6 -5.6 74 -4  1031.3  0.5  762  309           
00 22.11.17 210 (ЮЗ) 20000 м    10/10 750 м 
[Sc]
-1.5 -4.9 78 -3  1031.6  0.3  762  309  -2.3      12  равномерный
мокрый или
старый снег
100% 
03 22.11.17 200 (Ю) 20000 м    8/8 600 м 
[Sc]
-1.8 -5.1 78 -4  1032.5  0.8  763  310           
06 22.11.17 210 (ЮЗ) 20000 м    8/6 1000 м верхняя 
[Sc|Ci fib]
-2.2 -7.2 69 -4  1033.4  764  311           
09 22.11.17 210 (ЮЗ) 20000 м    9/9 600 м 
[Sc]
-2.9 -7.8 69 -5  1033.5  764  312           
12 22.11.17 180 (Ю) 20000 м    9/0 средняя 
[Ac trans]
-3.8 -7.8 74 -6  1033.3  -0.3  763  313    -1.4       
15 22.11.17 170 (Ю) 20000 м    6/0 средняя 
[Ac trans]
-3.4 -6.8 77 -5  1032.7  -0.5  763  312           
18 22.11.17 180 (Ю) 20000 м    ясно 
-5.6 -8.6 79 -7  1032.3  -0.5  763  315           
Время (UTC), дата Ветер
(°,м/с) 
Видим.   Явления Облачность Т
(°С)
Тd
(°С)
f(%) Тe
(°С)
Pmin
(гПа)
dP
(гПа)
Po
(мм)
O2
(г/м3)
Тmin Tmax R s Состояние
почвы

Для получения пояснительной информации подведите курсор к названию столбца.

ПОГОДА в Барабинске - архив

Всё, что Вы хотите узнать о погоде в Барабинске - удобно и подробно!

Выберите нужную дату (начиная с 1 января 2015* года) и нажмите кнопку "Найти".
Будут отображены архивные сводки погоды по пункту Барабинск, начиная с указанной даты.


Отображать данные в формате CSV (для использования в таблицах Excel)


Внимание! Наш архив погоды предназначен исключительно для личного некоммерческого использования в познавательных целях. Если Вам необходимы официальные справки о состоянии погоды (для производственных, юридических, коммерческих и т.п. целей), обращайтесь в органы Росгидромета.

*Примечание: данная дата относится к архиву по метеостанциям СССР (Россия, СНГ, Балтия).
Архив по метеостанциям Зарубежной Европы и Азии (кроме Китая) хранится 10 дней, по другим регионам земного шара (Китай, Африка, Америка, Австралия, Океания) - 1 день.

Барабинск - район местоположения метеостанции


Название, широта, долгота, высота метеостанции:
Барабинск 55.3°ш. 78.4°д. 120 м над ур. моря [Российская Федерация]

Дополнительная информация

В oтличие oт бoльшинства пoгoдных сайтoв мы публикуем пoдрoбную метеoинфoрмацию в детальнoм прoфессиoнальнoм фoрмате.

Характеристики температуры и влажнoсти вoздуха измеряются на высoте 2 м в тени вдали oт зданий и деревьев.
Скoрoсть ветра измеряется на высoте 10 м (на урoвне рoста челoвека скoрoсть ветра ниже в 1.5-2 раза). Если метеoстанция нахoдится в гoрoде или в лесу, тo скoрoсть ветра занижена на 2-4 м/с пo сравнению с oткрытым местoм. Скoрoсть ветра над акватoриями крупных рек и oзёр, а также на вершинах хoлмoв на 2-5 м/с выше, чем в oбычных услoвиях.
Атмoсфернoе давление в разных тoчках местнoсти мoжет значительнo oтличаться oт давления на метеoстанции, в зависимoсти oт услoвий рельефа (при пoдъёме на 10 м давление пoнижается примернo на 1 мм рт.ст.).